Weather History for Fort Collins, CO

Change the Weather History Date:

Saturday, May 11, 2013

  Actual Average Record
Temperature  
Mean Temperature 55 °F -  
Max Temperature 66 °F 67 °F 86 °F (2007)
Min Temperature 44 °F 40 °F 30 °F (1999)
Degree Days  
Heating Degree Days 10    
Growing Degree Days 5 (Base 50)    
Moisture  
Dew Point 42 °F    
Average Humidity 63    
Maximum Humidity 87    
Minimum Humidity 37    
Precipitation  
Precipitation 0.00 in - - ()
Sea Level Pressure  
Sea Level Pressure 30.36 in    
Wind  
Wind Speed 7 mph (SE)    
Max Wind Speed 16 mph    
Max Gust Speed 17 mph    
Visibility 10 miles    
Events Thunderstorm    
Averages and records for this station are not official NWS values.
T = Trace of Precipitation, MM = Missing Value Source: NWS Daily Summary

Daily Weather History Graph

Daily Weather History Graph

Search for Another Location

Airport:

Trip Planner

Search our weather history database for the weather conditions in past years. The results will help you decide how hot, cold, wet, or windy it might be!

Date:

Astronomy

May. 11, 2013 Rise Set
Actual Time 5:47 AM MDT 8:06 PM MDT
Civil Twilight 5:16 AM MDT 8:36 PM MDT
Nautical Twilight 4:39 AM MDT 9:14 PM MDT
Astronomical Twilight 3:57 AM MDT 9:56 PM MDT
Moon 6:56 AM MDT (5/11) 9:48 PM MDT (5/11)
Length of Visible Light 15h 19m
Length of Day
14h 18m
Waxing Crescent, 3% of the Moon is Illuminated
May 11
Waxing Crescent
May 17
First Quarter
May 24
Full
May 31
Last Quarter
Jun 8
New

Hourly Weather History & Observations

Time (MDT) Temp. Windchill Dew Point Humidity Pressure Visibility Wind Dir Wind Speed Gust Speed Precip Events Conditions
12:15 AM 48.2 °F - 37.4 °F 66% 30.38 in 10.0 mi NNW 12.7 mph - N/A   Clear
12:35 AM 50.0 °F - 37.4 °F 62% 30.39 in 10.0 mi NNW 11.5 mph - N/A   Clear
12:55 AM 50.0 °F - 37.4 °F 62% 30.39 in 10.0 mi NNW 15.0 mph - N/A   Partly Cloudy
1:15 AM 50.0 °F - 37.4 °F 62% 30.39 in 10.0 mi NNW 10.4 mph - N/A   Mostly Cloudy
1:35 AM 51.8 °F - 39.2 °F 62% 30.40 in 10.0 mi NNW 8.1 mph - N/A   Overcast
1:55 AM 51.8 °F - 39.2 °F 62% 30.40 in 10.0 mi NNW 9.2 mph - N/A   Overcast
2:15 AM 51.8 °F - 39.2 °F 62% 30.41 in 10.0 mi North 5.8 mph - N/A   Overcast
2:35 AM 51.8 °F - 39.2 °F 62% 30.41 in 10.0 mi NW 4.6 mph - N/A   Overcast
2:55 AM 51.8 °F - 39.2 °F 62% 30.41 in 10.0 mi NNW 3.5 mph - N/A   Overcast
3:15 AM 51.8 °F - 39.2 °F 62% 30.41 in 10.0 mi Calm Calm - N/A   Scattered Clouds
3:35 AM 51.8 °F - 39.2 °F 62% 30.40 in 10.0 mi Calm Calm - N/A   Clear
3:55 AM 50.0 °F - 39.2 °F 66% 30.40 in 10.0 mi Calm Calm - N/A   Scattered Clouds
4:15 AM 50.0 °F - 37.4 °F 62% 30.40 in 10.0 mi Calm Calm - N/A   Mostly Cloudy
4:35 AM 48.2 °F - 37.4 °F 66% 30.40 in 10.0 mi Calm Calm - N/A   Scattered Clouds
4:55 AM 46.4 °F 43.5 °F 39.2 °F 76% 30.40 in 10.0 mi South 5.8 mph - N/A   Mostly Cloudy
5:15 AM 46.4 °F 45.2 °F 39.2 °F 76% 30.40 in 10.0 mi South 3.5 mph - N/A   Mostly Cloudy
5:35 AM 46.4 °F 45.2 °F 37.4 °F 71% 30.41 in 10.0 mi South 3.5 mph - N/A   Scattered Clouds
5:55 AM 46.4 °F 45.2 °F 37.4 °F 71% 30.41 in 10.0 mi South 3.5 mph - N/A   Overcast
6:15 AM 46.4 °F 43.5 °F 37.4 °F 71% 30.42 in 10.0 mi NE 5.8 mph - N/A   Scattered Clouds
6:35 AM 44.6 °F 41.4 °F 37.4 °F 76% 30.43 in 10.0 mi ENE 5.8 mph - N/A   Clear
6:55 AM 44.6 °F 43.1 °F 37.4 °F 76% 30.43 in 10.0 mi East 3.5 mph - N/A   Clear
7:15 AM 48.2 °F - 41.0 °F 76% 30.43 in 10.0 mi ESE 4.6 mph - N/A   Clear
7:35 AM 50.0 °F - 41.0 °F 71% 30.44 in 10.0 mi SE 3.5 mph - N/A   Clear
7:55 AM 51.8 °F - 39.2 °F 62% 30.43 in 10.0 mi SE 4.6 mph - N/A   Clear
8:15 AM 51.8 °F - 41.0 °F 67% 30.43 in 10.0 mi ESE 5.8 mph - N/A   Clear
8:35 AM 51.8 °F - 39.2 °F 62% 30.44 in 10.0 mi East 6.9 mph - N/A   Clear
8:55 AM 53.6 °F - 42.8 °F 67% 30.43 in 10.0 mi East 6.9 mph - N/A   Clear
9:15 AM 53.6 °F - 42.8 °F 67% 30.43 in 10.0 mi SE 10.4 mph - N/A   Partly Cloudy
9:35 AM 53.6 °F - 42.8 °F 67% 30.43 in 10.0 mi SSE 9.2 mph - N/A   Clear
9:55 AM 55.4 °F - 42.8 °F 63% 30.42 in 10.0 mi SE 9.2 mph - N/A   Clear
10:15 AM 55.4 °F - 42.8 °F 63% 30.41 in 10.0 mi SSE 10.4 mph - N/A   Clear
10:35 AM 55.4 °F - 42.8 °F 63% 30.40 in 10.0 mi SSE 6.9 mph - N/A   Clear
10:55 AM 57.2 °F - 42.8 °F 59% 30.40 in 10.0 mi SSE 6.9 mph 16.1 mph N/A   Clear
11:15 AM 59.0 °F - 42.8 °F 55% 30.39 in 10.0 mi SSE 9.2 mph - N/A   Clear
11:35 AM 59.0 °F - 42.8 °F 55% 30.39 in 10.0 mi SE 4.6 mph - N/A   Clear
11:55 AM 59.0 °F - 42.8 °F 55% 30.39 in 10.0 mi South 3.5 mph - N/A   Partly Cloudy
12:15 PM 60.8 °F - 42.8 °F 52% 30.37 in 10.0 mi SSE 6.9 mph - N/A   Clear
12:35 PM 62.6 °F - 44.6 °F 52% 30.37 in 10.0 mi South 6.9 mph - N/A   Clear
12:55 PM 62.6 °F - 44.6 °F 52% 30.36 in 10.0 mi South 3.5 mph - N/A   Clear
1:15 PM 60.8 °F - 44.6 °F 55% 30.35 in 10.0 mi SSE 4.6 mph - N/A   Clear
1:55 PM 64.4 °F - 44.6 °F 49% 30.33 in 10.0 mi South 8.1 mph - N/A   Clear
2:15 PM 64.4 °F - 42.8 °F 45% 30.33 in 10.0 mi SSE 5.8 mph - N/A   Scattered Clouds
2:35 PM 62.6 °F - 42.8 °F 48% 30.34 in 10.0 mi Calm Calm - N/A   Overcast
2:55 PM 60.8 °F - 42.8 °F 52% 30.32 in 10.0 mi South 11.5 mph - N/A Thunderstorm Overcast
3:15 PM 64.4 °F - 42.8 °F 45% 30.30 in 10.0 mi SSE 11.5 mph 17.3 mph N/A   Scattered Clouds
3:35 PM 66.2 °F - 39.2 °F 37% 30.31 in 10.0 mi Calm Calm - N/A   Clear
3:55 PM 64.4 °F - 39.2 °F 40% 30.30 in 10.0 mi South 8.1 mph - N/A   Scattered Clouds
4:35 PM 62.6 °F - 44.6 °F 52% 30.30 in 10.0 mi East 8.1 mph - N/A   Mostly Cloudy
4:55 PM 62.6 °F - 42.8 °F 48% 30.29 in 10.0 mi East 16.1 mph - N/A   Scattered Clouds
5:35 PM 62.6 °F - 44.6 °F 52% 30.27 in 10.0 mi East 12.7 mph - N/A   Clear
5:55 PM 60.8 °F - 44.6 °F 55% 30.28 in 10.0 mi East 13.8 mph - N/A   Clear
6:15 PM 62.6 °F - 44.6 °F 52% 30.28 in 10.0 mi East 9.2 mph - N/A   Clear
6:35 PM 60.8 °F - 44.6 °F 55% 30.28 in 10.0 mi SE 6.9 mph - N/A   Partly Cloudy
6:55 PM 62.6 °F - 44.6 °F 52% 30.27 in 10.0 mi SE 6.9 mph - N/A   Mostly Cloudy
7:15 PM 60.8 °F - 44.6 °F 55% 30.27 in 10.0 mi SSE 8.1 mph - N/A   Partly Cloudy
7:35 PM 59.0 °F - 44.6 °F 59% 30.28 in 10.0 mi SE 3.5 mph - N/A   Clear
8:15 PM 55.4 °F - 42.8 °F 63% 30.26 in 10.0 mi SE 6.9 mph - N/A   Clear
8:35 PM 55.4 °F - 44.6 °F 67% 30.27 in 10.0 mi SE 6.9 mph - N/A   Clear
8:55 PM 53.6 °F - 44.6 °F 72% 30.26 in 10.0 mi SE 6.9 mph - N/A   Clear
9:15 PM 51.8 °F - 44.6 °F 76% 30.26 in 10.0 mi SSE 9.2 mph - N/A   Clear
9:35 PM 51.8 °F - 44.6 °F 76% 30.26 in 10.0 mi SSE 8.1 mph - N/A   Clear
9:55 PM 51.8 °F - 46.4 °F 82% 30.26 in 10.0 mi Calm Calm - N/A   Clear
10:15 PM 53.6 °F - 46.4 °F 77% 30.26 in 10.0 mi SSW 3.5 mph - N/A   Clear
10:35 PM 50.0 °F - 44.6 °F 82% 30.26 in 10.0 mi Calm Calm - N/A   Clear
11:15 PM 50.0 °F - 44.6 °F 82% 30.26 in 10.0 mi Calm Calm - N/A   Clear
11:35 PM 48.2 °F - 42.8 °F 82% 30.25 in 10.0 mi North 6.9 mph - N/A   Clear
11:55 PM 46.4 °F 43.5 °F 42.8 °F 87% 30.25 in 10.0 mi NNW 5.8 mph - N/A   Clear